| time (UTC) | temp C | wind direction | speed KPH | gust KPH | rain 1hr cm | rain 24hr cm | rain mn cm | humidity % | barometer mb |
| 20260507060032 | 12 | 260 | 0.0 | 0.0 | 0.00 | 0.00 | 0.00 | 93 | 1021.7 |
| 20260507053028 | 12 | 287 | 0.0 | 0.0 | 0.00 | 0.00 | 0.00 | 90 | 1021.4 |
| 20260507050024 | 12 | 241 | 0.0 | 0.0 | 0.00 | 0.00 | 0.00 | 87 | 1021.2 |
| 20260507043020 | 12 | 0 | 0.0 | 0.0 | 0.00 | 0.00 | 0.00 | 87 | 1021.5 |
| 20260507040016 | 13 | 238 | 3.2 | 0.0 | 0.00 | 0.00 | 0.00 | 84 | 1021.3 |
| 20260507033011 | 13 | 263 | 3.2 | 0.0 | 0.00 | 0.00 | 0.00 | 78 | 1021.3 |
| 20260507031200 | 13 | 244 | 1.6 | 0.0 | 0.00 | 0.00 | 0.00 | 77 | 1021.2 |
| 20260507021155 | 14 | 260 | 0.0 | 0.0 | 0.00 | 0.00 | 0.00 | 75 | 1021.1 |
| 20260507014152 | 15 | 264 | 1.6 | 0.0 | 0.00 | 0.00 | 0.00 | 72 | 1020.9 |
| 20260507011118 | 15 | 288 | 0.0 | 0.0 | 0.00 | 0.00 | 0.00 | 71 | 1020.6 |
| 20260507001111 | 15 | 259 | 4.8 | 0.0 | 0.00 | 0.00 | 0.00 | 67 | 1020.0 |
| 20260506234107 | 16 | 265 | 9.7 | 0.0 | 0.00 | 0.00 | 0.00 | 64 | 1019.6 |
| 20260506231104 | 17 | 243 | 12.9 | 0.0 | 0.00 | 0.00 | 0.00 | 54 | 1019.0 |
| 20260506224101 | 17 | 244 | 11.3 | 0.0 | 0.00 | 0.00 | 0.00 | 49 | 1018.7 |
| 20260506221058 | 18 | 251 | 8.0 | 0.0 | 0.00 | 0.00 | 0.00 | 40 | 1017.9 |
| 20260506214054 | 20 | 258 | 8.0 | 0.0 | 0.00 | 0.00 | 0.00 | 32 | 1017.4 |
| 20260506204049 | 21 | 264 | 11.3 | 0.0 | 0.00 | 0.00 | 0.00 | 28 | 1017.4 |
| 20260506201046 | 22 | 262 | 12.9 | 0.0 | 0.00 | 0.00 | 0.00 | 27 | 1017.0 |
| 20260506194041 | 23 | 256 | 14.5 | 0.0 | 0.00 | 0.00 | 0.00 | 27 | 1016.6 |
| 20260506191038 | 23 | 257 | 9.7 | 0.0 | 0.00 | 0.00 | 0.00 | 26 | 1016.3 |
| 20260506184036 | 23 | 255 | 12.9 | 0.0 | 0.00 | 0.00 | 0.00 | 27 | 1016.2 |
| 20260506181033 | 23 | 268 | 9.7 | 0.0 | 0.00 | 0.00 | 0.00 | 26 | 1016.2 |
| 20260506174030 | 23 | 266 | 8.0 | 0.0 | 0.00 | 0.00 | 0.00 | 29 | 1016.4 |
| 20260506171027 | 23 | 260 | 9.7 | 0.0 | 0.00 | 0.00 | 0.00 | 33 | 1017.0 |
| 20260506164024 | 22 | 258 | 9.7 | 0.0 | 0.00 | 0.00 | 0.00 | 32 | 1017.4 |
| 20260506161021 | 21 | 300 | 1.6 | 0.0 | 0.00 | 0.00 | 0.00 | 39 | 1018.5 |
| 20260506154018 | 19 | 264 | 1.6 | 0.0 | 0.00 | 0.00 | 0.00 | 43 | 1019.2 |
| 20260506151016 | 18 | 58 | 3.2 | 0.0 | 0.00 | 0.00 | 0.00 | 46 | 1019.7 |
| 20260506141010 | 15 | 90 | 1.6 | 0.0 | 0.00 | 0.00 | 0.00 | 59 | 1022.2 |
| 20260506134006 | 10 | 54 | 1.6 | 0.0 | 0.00 | 0.00 | 0.00 | 75 | 1022.8 |
| 20260506130931 | 7 | 73 | 4.8 | 0.0 | 0.00 | 0.00 | 0.00 | 88 | 1023.3 |
| 20260506123929 | 6 | 54 | 3.2 | 0.0 | 0.00 | 0.00 | 0.00 | 91 | 1023.0 |
| 20260506120926 | 6 | 63 | 1.6 | 0.0 | 0.00 | 0.00 | 0.00 | 93 | 1023.1 |
| 20260506113924 | 6 | 108 | 1.6 | 0.0 | 0.00 | 0.00 | 0.00 | 92 | 1022.6 |
| 20260506103919 | 6 | 85 | 0.0 | 0.0 | 0.00 | 0.00 | 0.00 | 94 | 1021.5 |
| 20260506100916 | 6 | 275 | 0.0 | 0.0 | 0.00 | 0.00 | 0.00 | 94 | 1020.7 |
| 20260506093914 | 7 | 51 | 1.6 | 0.0 | 0.00 | 0.00 | 0.00 | 89 | 1020.5 |
| 20260506090912 | 7 | 45 | 4.8 | 0.0 | 0.00 | 0.00 | 0.00 | 92 | 1020.3 |
| 20260506083910 | 6 | 53 | 6.4 | 0.0 | 0.00 | 0.00 | 0.00 | 95 | 1020.6 |
| 20260506080907 | 7 | 76 | 3.2 | 0.0 | 0.00 | 0.00 | 0.00 | 90 | 1020.8 |
| 20260506070903 | 7 | 64 | 1.6 | 0.0 | 0.00 | 0.00 | 0.00 | 89 | 1020.4 |